Location: Chervonnoye
(48.6000°N, 34.4000°E)
Time: 07:07:07
(UTC+00:00)

Nadezhda 1 Rocket - Pass Details

Date: 25 April 2021
Orbit: 940 x 1006 km, 83.0° (Epoch: 13 May)

Event Time Altitude Azimuth Distance (km) Brightness Sun altitude
Exits shadow 20:04:26 19° 88° (E) 2,202 5.6 -24.4°
Maximum altitude 20:05:09 19° 79° (E) 2,183 5.7 -24.4°
Drops below altitude 10° 20:09:24 10° 37° (NE) 2,773 6.7 -24.7°
Sets 20:12:39 0° 21° (NNE) 3,718 7.7 -25.0°
